Location: Unspecified
(0.0000°N, 0.0000°E)
Time: 21:07:36
(UTC+00:00)

COSMO-SKYMED 1 - Visible Passes

Search period start: 22 June 2018 00:00
Search period end: 02 July 2018 00:00
Orbit: 621 x 623 km, 97.9° (Epoch: 22 June)

Date Brightness Start Highest point End Pass type
(mag) Time Alt. Az. Time Alt. Az. Time Alt. Az.
22 Jun 5.9 04:45:30 10° ESE 04:47:33 13° ENE 04:49:35 10° NE visible
22 Jun 5.7 18:29:20 10° NNW 18:32:22 19° WNW 18:35:25 10° WSW visible
23 Jun 5.2 05:02:04 10° SE 05:05:32 23° ENE 05:08:59 10° NNE visible
23 Jun 6.4 18:49:44 10° WNW 18:50:20 10° WNW 18:50:56 10° W visible
24 Jun 4.1 05:19:25 10° SSE 05:23:31 42° ENE 05:27:36 10° N visible
25 Jun 2.8 05:37:10 10° SSE 05:41:30 79° E 05:45:49 10° N visible
27 Jun 6.1 04:40:38 10° E 04:41:35 11° ENE 04:42:31 10° ENE visible
27 Jun 5.5 18:23:00 10° NNW 18:26:23 23° WNW 18:29:48 10° SW visible
28 Jun 5.5 04:56:26 10° SE 04:59:33 19° ENE 05:02:39 10° NNE visible
28 Jun 6.0 18:42:27 10° NW 18:44:22 13° WNW 18:46:17 10° WSW visible
29 Jun 4.5 05:13:36 10° SE 05:17:32 34° ENE 05:21:27 10° NNE visible
30 Jun 3.1 05:31:13 10° SSE 05:35:31 64° ENE 05:39:48 10° N visible
